When you browse on this site, cookies collect data to enhance your experience and personalize the content and advertising you see.
Visit our Privacy Policy to learn more. By continuing to use the site, you agree to this use of cookies and data.
  • In Romania
  • List of Countries
  • For 7 days
  • Water Temperature
  • Satellite Maps
  • Weather Map
  • Weather Widgets
  • user-avatar
    Login

    Hourly Weather Porech

    Today, 19 February, Tuesday

    Time Temperature Precipitation Wind Pressure Humidity
    00:00 +8°C° 0 mm 2 mps 765 mmHg 85%
    01:00 +8°C° 0 mm 2 mps 765 mmHg 84%
    02:00 +7°C° 0 mm 2 mps 765 mmHg 84%
    03:00 +7°C° 0 mm 2 mps 765 mmHg 84%
    04:00 +7°C° 0 mm 2 mps 764 mmHg 84%
    05:00 +7°C° 0 mm 2 mps 764 mmHg 85%
    06:00 +7°C° 0 mm 2 mps 765 mmHg 86%
    07:00 +7°C° 0 mm 2 mps 765 mmHg 86%
    08:00 +8°C° 0 mm 2 mps 765 mmHg 82%
    09:00 +10°C° 0 mm 2 mps 765 mmHg 77%
    10:00 +13°C° 0 mm 2 mps 765 mmHg 73%
    11:00 +13°C° 0 mm 2 mps 764 mmHg 71%
    12:00 +14°C° 0 mm 2 mps 764 mmHg 69%
    13:00 +15°C° 0 mm 2 mps 764 mmHg 68%
    14:00 +14°C° 0 mm 2 mps 764 mmHg 70%
    15:00 +14°C° 0 mm 2 mps 764 mmHg 72%
    16:00 +13°C° 0 mm 2 mps 764 mmHg 74%
    17:00 +12°C° 0 mm 1 mps 764 mmHg 80%
    18:00 +11°C° 0 mm 1 mps 764 mmHg 86%
    19:00 +10°C° 0 mm 1 mps 765 mmHg 91%
    20:00 +10°C° 0 mm 1 mps 765 mmHg 92%
    21:00 +9°C° 0 mm 1 mps 765 mmHg 93%
    22:00 +9°C° 0 mm 1 mps 765 mmHg 94%
    23:00 +9°C° 0 mm 1 mps 766 mmHg 94%

    Tomorrow, 20 February, Wednesday

    Time Temperature Precipitation Wind Pressure Humidity
    00:00 +8°C° 0 mm 1 mps 766 mmHg 94%
    01:00 +8°C° 0 mm 1 mps 766 mmHg 94%
    02:00 +8°C° 0 mm 1 mps 766 mmHg 93%
    03:00 +8°C° 0 mm 1 mps 766 mmHg 93%
    04:00 +8°C° 0 mm 1 mps 765 mmHg 93%
    05:00 +7°C° 0 mm 1 mps 766 mmHg 93%
    06:00 +7°C° 0 mm 1 mps 766 mmHg 92%
    07:00 +7°C° 0 mm 1 mps 766 mmHg 92%
    08:00 +9°C° 0 mm 1 mps 766 mmHg 85%
    09:00 +11°C° 0 mm 1 mps 766 mmHg 78%
    10:00 +12°C° 0 mm 1 mps 766 mmHg 71%
    11:00 +13°C° 0 mm 1 mps 767 mmHg 68%
    12:00 +14°C° 0 mm 1 mps 767 mmHg 64%
    13:00 +15°C° 0 mm 1 mps 767 mmHg 61%
    14:00 +14°C° 0 mm 1 mps 766 mmHg 64%
    15:00 +14°C° 0 mm 1 mps 766 mmHg 66%
    16:00 +13°C° 0 mm 1 mps 766 mmHg 69%
    17:00 +12°C° 0 mm 1 mps 766 mmHg 76%
    18:00 +11°C° 0 mm 1 mps 767 mmHg 82%
    19:00 +10°C° 0 mm 1 mps 767 mmHg 89%
    20:00 +10°C° 0 mm 1 mps 768 mmHg 90%
    21:00 +9°C° 0 mm 1 mps 768 mmHg 90%
    22:00 +9°C° 0 mm 1 mps 768 mmHg 91%
    23:00 +9°C° 0 mm 1 mps 768 mmHg 91%

    Day after tomorrow, 21 February, Thursday

    Time Temperature Precipitation Wind Pressure Humidity
    00:00 +9°C° 0 mm 1 mps 768 mmHg 91%
    01:00 +8°C° 0 mm 2 mps 769 mmHg 91%
    02:00 +8°C° 0 mm 2 mps 769 mmHg 91%
    03:00 +7°C° 0 mm 2 mps 769 mmHg 90%
    04:00 +7°C° 0 mm 2 mps 769 mmHg 90%
    05:00 +7°C° 0 mm 2 mps 769 mmHg 90%
    06:00 +7°C° 0 mm 2 mps 769 mmHg 89%
    07:00 +7°C° 0 mm 2 mps 769 mmHg 88%
    08:00 +9°C° 0 mm 3 mps 769 mmHg 80%
    09:00 +11°C° 0 mm 3 mps 769 mmHg 72%
    10:00 +12°C° 0 mm 3 mps 770 mmHg 63%
    11:00 +13°C° 0 mm 3 mps 769 mmHg 60%
    12:00 +14°C° 0 mm 3 mps 769 mmHg 57%
    13:00 +16°C° 0 mm 3 mps 769 mmHg 54%
    14:00 +14°C° 0 mm 3 mps 769 mmHg 56%
    15:00 +14°C° 0 mm 3 mps 769 mmHg 59%
    16:00 +13°C° 0 mm 3 mps 768 mmHg 61%
    17:00 +13°C° 0 mm 2 mps 768 mmHg 66%
    18:00 +12°C° 0 mm 2 mps 769 mmHg 72%
    19:00 +10°C° 0 mm 1 mps 769 mmHg 77%
    20:00 +10°C° 0 mm 1 mps 769 mmHg 76%
    21:00 +10°C° 0 mm 1 mps 769 mmHg 75%
    22:00 +10°C° 0 mm 1 mps 769 mmHg 75%
    23:00 +10°C° 0 mm 1 mps 769 mmHg 74%

    22 February, Friday

    Time Temperature Precipitation Wind Pressure Humidity
    00:00 +10°C° 0 mm 1 mps 769 mmHg 73%
    01:00 +9°C° 0 mm 1 mps 769 mmHg 72%
    02:00 +9°C° 0 mm 1 mps 769 mmHg 73%
    03:00 +9°C° 0 mm 1 mps 769 mmHg 73%
    04:00 +9°C° 0 mm 1 mps 768 mmHg 73%
    05:00 +8°C° 0 mm 2 mps 768 mmHg 74%
    06:00 +8°C° 0 mm 2 mps 769 mmHg 74%
    07:00 +8°C° 0 mm 2 mps 769 mmHg 75%
    08:00 +10°C° 0 mm 2 mps 769 mmHg 71%
    09:00 +13°C° 0 mm 2 mps 769 mmHg 66%
    10:00 +14°C° 0 mm 2 mps 769 mmHg 62%
    11:00 +14°C° 0 mm 3 mps 768 mmHg 58%
    12:00 +16°C° 0 mm 3 mps 768 mmHg 54%
    13:00 +17°C° 0 mm 3 mps 768 mmHg 50%
    14:00 +17°C° 0 mm 3 mps 768 mmHg 51%
    15:00 +17°C° 0 mm 3 mps 768 mmHg 52%
    16:00 +17°C° 0 mm 2 mps 768 mmHg 53%
    17:00 +16°C° 0 mm 2 mps 768 mmHg 56%
    18:00 +14°C° 0 mm 2 mps 769 mmHg 59%
    19:00 +13°C° 0 mm 2 mps 769 mmHg 62%
    20:00 +11°C° 0 mm 3 mps 770 mmHg 62%
    21:00 +11°C° 0 mm 3 mps 770 mmHg 63%
    22:00 +10°C° 0 mm 4 mps 771 mmHg 63%
    23:00 +10°C° 0 mm 4 mps 771 mmHg 64%

    23 February, Saturday

    Time Temperature Precipitation Wind Pressure Humidity
    00:00 +8°C° 0 mm 4 mps 772 mmHg 65%
    01:00 +7°C° 0 mm 4 mps 772 mmHg 66%
    02:00 +7°C° 0 mm 4 mps 772 mmHg 65%
    03:00 +6°C° 0 mm 4 mps 773 mmHg 65%
    04:00 +5°C° 0 mm 5 mps 773 mmHg 65%
    05:00 +5°C° 0 mm 5 mps 773 mmHg 62%
    06:00 +3°C° 0 mm 5 mps 773 mmHg 59%
    07:00 +3°C° 0 mm 5 mps 773 mmHg 56%
    08:00 +5°C° 0 mm 4 mps 773 mmHg 50%
    09:00 +6°C° 0 mm 4 mps 774 mmHg 44%
    10:00 +8°C° 0 mm 4 mps 774 mmHg 38%
    11:00 +10°C° 0 mm 3 mps 774 mmHg 35%
    12:00 +12°C° 0 mm 2 mps 773 mmHg 32%
    13:00 +13°C° 0 mm 1 mps 773 mmHg 28%
    14:00 +13°C° 0 mm 2 mps 773 mmHg 31%
    15:00 +12°C° 0 mm 2 mps 772 mmHg 34%
    16:00 +11°C° 0 mm 3 mps 772 mmHg 36%
    17:00 +10°C° 0 mm 3 mps 772 mmHg 44%
    18:00 +9°C° 0 mm 3 mps 772 mmHg 51%
    19:00 +7°C° 0 mm 3 mps 773 mmHg 58%
    20:00 +7°C° 0 mm 3 mps 773 mmHg 55%
    21:00 +5°C° 0 mm 3 mps 773 mmHg 52%
    22:00 +5°C° 0 mm 3 mps 773 mmHg 49%
    23:00 +4°C° 0 mm 3 mps 773 mmHg 50%

    24 February, Sunday

    Time Temperature Precipitation Wind Pressure Humidity
    00:00 +4°C° 0 mm 3 mps 773 mmHg 51%
    01:00 +3°C° 0 mm 3 mps 773 mmHg 51%
    02:00 +3°C° 0 mm 3 mps 772 mmHg 50%
    03:00 +3°C° 0 mm 3 mps 772 mmHg 50%
    04:00 +2°C° 0 mm 3 mps 772 mmHg 49%
    05:00 +2°C° 0 mm 3 mps 772 mmHg 48%
    06:00 +2°C° 0 mm 3 mps 772 mmHg 48%
    07:00 +2°C° 0 mm 2 mps 772 mmHg 47%
    08:00 +4°C° 0 mm 2 mps 773 mmHg 43%
    09:00 +6°C° 0 mm 2 mps 773 mmHg 39%
    10:00 +8°C° 0 mm 2 mps 773 mmHg 35%
    11:00 +9°C° 0 mm 2 mps 773 mmHg 34%
    12:00 +10°C° 0 mm 2 mps 773 mmHg 33%
    13:00 +12°C° 0 mm 2 mps 773 mmHg 32%
    14:00 +12°C° 0 mm 2 mps 772 mmHg 34%
    15:00 +11°C° 0 mm 3 mps 772 mmHg 37%
    16:00 +11°C° 0 mm 3 mps 772 mmHg 39%
    17:00 +9°C° 0 mm 3 mps 773 mmHg 44%
    18:00 +8°C° 0 mm 3 mps 773 mmHg 50%
    19:00 +5°C° 0 mm 3 mps 773 mmHg 56%
    20:00 +5°C° 0 mm 3 mps 774 mmHg 56%
    21:00 +4°C° 0 mm 3 mps 774 mmHg 56%
    22:00 +3°C° 0 mm 3 mps 774 mmHg 56%
    23:00 +3°C° 0 mm 3 mps 774 mmHg 57%
    Show more